Log in  \/ 
x
x

Gillespie Operations

The Plus One Flyers, Inc SEE office is located at 1987 N.Marshall Ave, El Cajon 92020

Your Plus One key will open the lock box where the office key is located. PLEASE BE SURE TO PUT THE KEY BACK IN THE BOX.

We just did a major remodel of the facility and we now have a large meeting/ class room with a large screen TV for presentations. 

Go check it out!

 

Additional info
  • Operations Officer: Dave Eby
  • Phone Number: 619-279-7499
  • E-Mail: seeops@plusoneflyers.org
Comments
  • No comments found

Leave your comments

0 Character restriction
Your text should be more than 10 characters
terms and condition.
Special Instructions

Use your Plus One key to gain access to the real estate lock box.  This key will open the door.  Please remember to return the key to the lock box.

Gillespie Weather

[source: ADDS]
METAR
KSEE 291447Z 00000KT 10SM SKC 15/06 A2995 =
KNKX 291455Z 30004KT 10SM FEW200 22/M08 A2995 RMK AO2 SLP135 T02221078 53023 $ =
TAF
TAF KNKX 2915/3015 VRB05KT 9999 SKC 520207 520909 QNH2995INS FM291830 30012KT 9999 SKC 520009 520909 QNH2994INS TEMPO 2919/3001 32014G24KT FM300330 VRB05KT 9999 SKC 500000 QNH2999INS T30/2921Z T12/3013Z =
SR / SS: 13:01 / 02:28 UTC ( 2017-04-29)

Gillespie Operations Map